Flag for Germany Weather past 2 weeks in Meiningen, Thuringia, Germany

Now
34 °F

Partly sunny.


Feels Like: 28 °F
Forecast: 28 / 32 °F
Wind: 6 mph from Northwest

Location: Meiningen

Current Time: Dec 26, 2014 at 1:59:27 PM

Latest Report: Dec 26, 2014 at 1:00 PM


Visibility: 10 mi

Pressure: 30.37 "Hg

Humidity: 74%

Dew point: 26 °F

Location of MeiningenLocation

Historic Weather in Meiningen — Graph

°F

Meiningen temperature yesterday

Maximum temperature yesterday: 41 °F (at 12:00 AM)
Minimum temperature yesterday: 33 °F (at 8:00 PM)
Average temperature yesterday: 37 °F

Past Weeks' High & Low Weather Summary

 TemperatureHumidityPressure
High52 °F (Dec 18, 11:00 PM)100% (Dec 14, 5:00 PM)30.45 "Hg (Dec 14, 5:00 PM)
Low31 °F (Dec 17, 6:00 AM)70% (Dec 15, 12:00 PM)29.60 "Hg (Dec 12, 7:00 PM)
Average40 °F88%30.04 "Hg
* Reported Dec 11 1:00 PM — Dec 26 1:00 PM, Meiningen, Weather by CustomWeather, © 2014

Note: Actual official high and low records may vary slightly from our data, if they occured in-between our weather recording intervals... More about our weather records

Advertising

Meiningen weather history for previous 24 hours

 ConditionsComfort  
Time TempWeatherWind HumidityBarometerVisibility
1:00 PM
Dec 26
34 °FPartly sunny.6 mph74%30.37 "Hg10 mi
12:00 PM34 °FPartly sunny.5 mph72%30.37 "Hg12 mi
11:00 AM33 °FPassing clouds.3 mph79%30.39 "Hg11 mi
9:00 AM32 °FScattered clouds.2 mph83%30.38 "Hg9 mi
8:00 AM32 °FPassing clouds.5 mph84%30.37 "Hg12 mi
7:00 AM33 °FOvercast.5 mph81%30.37 "Hg16 mi
6:00 AM33 °FOvercast.5 mph81%30.35 "Hg16 mi
5:00 AM33 °FOvercast.6 mph81%30.34 "Hg19 mi
3:00 AM34 °FOvercast.5 mph77%30.33 "Hg25 mi
2:00 AM34 °FOvercast.5 mph81%30.32 "Hg19 mi
1:00 AM34 °FOvercast.6 mph83%30.32 "Hg18 mi
12:00 AM34 °FPassing clouds.5 mph78%30.30 "Hg25 mi
11:00 PM
Dec 25
35 °FOvercast.6 mph78%30.28 "Hg22 mi
9:00 PM34 °FPassing clouds.5 mph84%30.27 "Hg22 mi
8:00 PM33 °FLow clouds.6 mph89%30.27 "Hg37 mi
7:00 PM36 °FOvercast.5 mph83%30.23 "Hg22 mi
6:00 PM37 °FLight freezing rain. Passing clouds.6 mph85%30.23 "Hg2 mi
5:00 PM38 °FPassing clouds.6 mph76%30.19 "Hg12 mi
3:00 PM38 °FPartly sunny.6 mph74%30.19 "Hg12 mi
2:00 PM39 °FOvercast.6 mph74%30.19 "Hg28 mi
1:00 PM39 °FPartly sunny.6 mph72%30.20 "Hg25 mi
Weather by CustomWeather, © 2014

See weather overviewHow to use our weather pages